sat.trackr.live / text

‹ back to catalog

STARLINK-35137

NORAD 65686 · 2025-212L

PAYLOAD ACTIVE UNKNOWN

§ Identity

Operator
Country
US
Launch date
2025-09-21
Launch site
AFETR
Launch vehicle
Mass (kg)
RCS (m²)

Purposes: comms

External: N2YO · Heavens-Above · Gunter

§ Orbital elements

Epoch: 2026-05-24T23:20:14.598816Z

Period
94.10 min
Inclination
53.1596°
Eccentricity
0.0000991
Mean motion
15.30214897 rev/d
Perigee alt
474.5 km
Apogee alt
475.8 km
Semi-major
6,853.3 km
B*
8.2691e-4
RAAN
341.2996°
Arg perigee
81.4441°
Mean anomaly
278.6672°
Rev number
3,901

§ Raw data

STARLINK-351371 65686U 25212L   26144.97239119  .00024223  00000+0  82691-3 0  99922 65686  53.1596 341.2996 0000991  81.4441 278.6672 15.30214897 39018

JSON: /api/v1/satellites/65686 · /tle

For live sub-satellite position, see the globe view (requires WebGL).

§ Visibility from observer

Set your observer location to see the next 7 days of passes ≥ 10°. The values pass through the URL so the page stays shareable.

No JS? Fill the form by hand. The geolocation button needs JavaScript.